Mackinac Island, MI

8:22 AM EDT on August 19, 2017 (GMT -0400)
Mackinac Island

Weather History for KMCD - October, 2011

Change the Weather History Date:

Wednesday, October 19, 2011

  Actual Average Record
Temperature  
Mean Temperature 42 °F -  
Max Temperature 48 °F 49 °F 62 °F (2000)
Min Temperature 37 °F 39 °F 20 °F (1974)
Degree Days  
Heating Degree Days 22    
Moisture  
Dew Point 36 °F    
Average Humidity 78    
Maximum Humidity 93    
Minimum Humidity 62    
Precipitation  
Precipitation 0.00 in - - ()
Sea Level Pressure  
Sea Level Pressure 29.90 in    
Wind  
Wind Speed 6 mph (NE)    
Max Wind Speed 14 mph    
Max Gust Speed 26 mph    
Visibility 10 miles    
Events      
Averages and records for this station are not official NWS values.
T = Trace of Precipitation, MM = Missing Value Source: NWS Daily Summary

Daily Weather History Graph

Daily Weather History Graph

Search for Another Location

Airport or City:

Trip Planner

Search our weather history database for the weather conditions in past years. The results will help you decide how hot, cold, wet, or windy it might be!

Date:

Astronomy

Oct. 19, 2011 Rise Set
Actual Time 8:00 AM EDT 6:46 PM EDT
Civil Twilight 7:30 AM EDT 7:16 PM EDT
Nautical Twilight 6:55 AM EDT 7:50 PM EDT
Astronomical Twilight 6:20 AM EDT 8:25 PM EDT
Moon No Moon Rise 2:39 PM EDT
Length of Visible Light 11h 46m
Length of Day
10h 45m
Waning Gibbous, 55% of the Moon is Illuminated
Oct 19
Waning Gibbous
Oct 19
Last Quarter
Oct 26
New
Nov 2
First Quarter
Nov 10
Full

Hourly Weather History & Observations

Time (EDT) Temp. Windchill Dew Point Humidity Pressure Visibility Wind Dir Wind Speed Gust Speed Precip Events Conditions
12:14 AM 39.2 °F - 35.6 °F 87% 29.91 in 10.0 mi Calm Calm - N/A   Overcast
12:54 AM 39.2 °F 35.9 °F 37.4 °F 93% 29.90 in 10.0 mi North 4.6 mph - N/A   Overcast
1:14 AM 41.0 °F - 37.4 °F 87% 29.90 in 10.0 mi Calm Calm - N/A   Overcast
1:35 AM 41.0 °F 36.4 °F 37.4 °F 87% 29.89 in 10.0 mi NE 6.9 mph - N/A   Overcast
2:14 AM 41.0 °F 39.0 °F 37.4 °F 87% 29.90 in 10.0 mi ENE 3.5 mph - N/A   Overcast
3:14 AM 42.8 °F 39.3 °F 37.4 °F 81% 29.90 in 10.0 mi ENE 5.8 mph - N/A   Overcast
3:34 AM 42.8 °F 41.1 °F 37.4 °F 81% 29.91 in 10.0 mi ENE 3.5 mph - N/A   Overcast
4:14 AM 42.8 °F 40.1 °F 37.4 °F 81% 29.91 in 10.0 mi ESE 4.6 mph - N/A   Overcast
4:35 AM 42.8 °F 38.6 °F 37.4 °F 81% 29.90 in 10.0 mi ENE 6.9 mph - N/A   Overcast
4:54 AM 41.0 °F 37.1 °F 37.4 °F 87% 29.90 in 10.0 mi ENE 5.8 mph - N/A   Overcast
5:14 AM 41.0 °F 37.1 °F 37.4 °F 87% 29.90 in 10.0 mi ENE 5.8 mph - N/A   Overcast
5:34 AM 41.0 °F 36.4 °F 37.4 °F 87% 29.90 in 10.0 mi ENE 6.9 mph - N/A   Overcast
5:54 AM 41.0 °F 36.4 °F 37.4 °F 87% 29.90 in 10.0 mi ENE 6.9 mph - N/A   Overcast
6:14 AM 41.0 °F 36.4 °F 37.4 °F 87% 29.89 in 10.0 mi ENE 6.9 mph 16.1 mph N/A   Overcast
6:34 AM 39.2 °F 34.2 °F 37.4 °F 93% 29.90 in 10.0 mi ENE 6.9 mph - N/A   Mostly Cloudy
6:54 AM 39.2 °F 35.0 °F 37.4 °F 93% 29.92 in 10.0 mi ENE 5.8 mph - N/A   Mostly Cloudy
7:14 AM 39.2 °F 34.2 °F 37.4 °F 93% 29.92 in 10.0 mi ENE 6.9 mph - N/A   Mostly Cloudy
7:34 AM 37.4 °F 32.1 °F 35.6 °F 93% 29.92 in 10.0 mi ENE 6.9 mph - N/A   Mostly Cloudy
7:54 AM 37.4 °F 31.4 °F 35.6 °F 93% 29.92 in 10.0 mi ENE 8.1 mph - N/A   Overcast
8:15 AM 37.4 °F 31.4 °F 35.6 °F 93% 29.92 in 10.0 mi ENE 8.1 mph 17.3 mph N/A   Overcast
8:34 AM 37.4 °F 32.1 °F 35.6 °F 93% 29.92 in 10.0 mi ENE 6.9 mph - N/A   Overcast
8:54 AM 39.2 °F 33.0 °F 35.6 °F 87% 29.93 in 10.0 mi ENE 9.2 mph 16.1 mph N/A   Overcast
9:14 AM 39.2 °F 33.6 °F 35.6 °F 87% 29.94 in 10.0 mi NE 8.1 mph - N/A   Overcast
9:34 AM 39.2 °F 34.2 °F 35.6 °F 87% 29.94 in 10.0 mi ENE 6.9 mph 18.4 mph N/A   Overcast
9:54 AM 41.0 °F 36.4 °F 37.4 °F 87% 29.95 in 10.0 mi NE 6.9 mph - N/A   Overcast
10:14 AM 41.0 °F 36.4 °F 37.4 °F 87% 29.95 in 10.0 mi NE 6.9 mph - N/A   Overcast
10:35 AM 41.0 °F 35.2 °F 37.4 °F 87% 29.94 in 10.0 mi NE 9.2 mph 16.1 mph N/A   Overcast
10:54 AM 42.8 °F 37.0 °F 37.4 °F 81% 29.93 in 10.0 mi NE 10.4 mph 18.4 mph N/A   Overcast
11:14 AM 42.8 °F 38.0 °F 37.4 °F 81% 29.93 in 10.0 mi ENE 8.1 mph 17.3 mph N/A   Mostly Cloudy
11:34 AM 42.8 °F 38.6 °F 37.4 °F 81% 29.95 in 10.0 mi ENE 6.9 mph 18.4 mph N/A   Mostly Cloudy
11:54 AM 42.8 °F 39.3 °F 37.4 °F 81% 29.95 in 10.0 mi ENE 5.8 mph - N/A   Mostly Cloudy
12:14 PM 44.6 °F 40.2 °F 37.4 °F 76% 29.95 in 10.0 mi ENE 8.1 mph - N/A   Scattered Clouds
12:34 PM 44.6 °F 40.7 °F 37.4 °F 76% 29.94 in 10.0 mi NE 6.9 mph 17.3 mph N/A   Scattered Clouds
1:34 PM 46.4 °F 41.9 °F 35.6 °F 66% 29.91 in 10.0 mi NE 9.2 mph - N/A   Overcast
1:54 PM 48.2 °F - 35.6 °F 62% 29.91 in 10.0 mi NE 11.5 mph 18.4 mph N/A   Mostly Cloudy
2:15 PM 46.4 °F 42.4 °F 33.8 °F 62% 29.89 in 10.0 mi NE 8.1 mph 17.3 mph N/A   Mostly Cloudy
2:34 PM 46.4 °F 41.1 °F 35.6 °F 66% 29.89 in 10.0 mi NE 11.5 mph 17.3 mph N/A   Mostly Cloudy
2:55 PM 46.4 °F 40.4 °F 33.8 °F 62% 29.88 in 10.0 mi NE 13.8 mph 23.0 mph N/A   Overcast
3:14 PM 46.4 °F 41.9 °F 33.8 °F 62% 29.88 in 10.0 mi NE 9.2 mph 23.0 mph N/A   Overcast
3:34 PM 46.4 °F 42.9 °F 33.8 °F 62% 29.88 in 10.0 mi NE 6.9 mph 16.1 mph N/A   Overcast
3:54 PM 46.4 °F 41.5 °F 33.8 °F 62% 29.88 in 10.0 mi NE 10.4 mph 19.6 mph N/A   Overcast
4:15 PM 46.4 °F 40.7 °F 33.8 °F 62% 29.87 in 10.0 mi NE 12.7 mph 18.4 mph N/A   Overcast
4:34 PM 46.4 °F 41.9 °F 33.8 °F 62% 29.87 in 10.0 mi NE 9.2 mph 18.4 mph N/A   Overcast
4:54 PM 46.4 °F 40.4 °F 33.8 °F 62% 29.86 in 10.0 mi NE 13.8 mph 25.3 mph N/A   Overcast
5:14 PM 46.4 °F 40.7 °F 33.8 °F 62% 29.85 in 10.0 mi NE 12.7 mph 21.9 mph N/A   Scattered Clouds
5:34 PM 46.4 °F 41.5 °F 33.8 °F 62% 29.84 in 10.0 mi NE 10.4 mph 21.9 mph N/A   Scattered Clouds
5:54 PM 46.4 °F 41.5 °F 33.8 °F 62% 29.85 in 10.0 mi NE 10.4 mph 24.2 mph N/A   Scattered Clouds
6:14 PM 46.4 °F 41.5 °F 33.8 °F 62% 29.85 in 10.0 mi NE 10.4 mph 24.2 mph N/A   Scattered Clouds
6:34 PM 44.6 °F 38.8 °F 33.8 °F 66% 29.85 in 10.0 mi NE 11.5 mph 24.2 mph N/A   Mostly Cloudy
6:55 PM 44.6 °F 39.2 °F 33.8 °F 66% 29.84 in 10.0 mi NE 10.4 mph 26.5 mph N/A   Overcast
7:14 PM 44.6 °F 38.1 °F 33.8 °F 66% 29.83 in 10.0 mi NE 13.8 mph 21.9 mph N/A   Overcast
7:34 PM 44.6 °F 38.8 °F 35.6 °F 71% 29.82 in 10.0 mi NE 11.5 mph 25.3 mph N/A   Overcast
7:55 PM 44.6 °F 38.4 °F 35.6 °F 71% 29.82 in 10.0 mi NE 12.7 mph 19.6 mph N/A   Overcast
8:14 PM 44.6 °F 38.1 °F 35.6 °F 71% 29.82 in 10.0 mi NE 13.8 mph 23.0 mph N/A   Overcast
8:34 PM 44.6 °F 37.8 °F 33.8 °F 66% 29.81 in 10.0 mi NE 15.0 mph 28.8 mph N/A   Overcast
8:55 PM 44.6 °F 38.8 °F 35.6 °F 71% 29.80 in 10.0 mi NE 11.5 mph 24.2 mph N/A   Overcast
9:14 PM 44.6 °F 38.1 °F 33.8 °F 66% 29.80 in 10.0 mi NE 13.8 mph 21.9 mph N/A   Overcast
9:34 PM 44.6 °F 38.8 °F 35.6 °F 71% 29.80 in 10.0 mi NE 11.5 mph 23.0 mph N/A   Overcast
10:14 PM 44.6 °F 38.1 °F 35.6 °F 71% 29.77 in 10.0 mi NE 13.8 mph 24.2 mph N/A   Overcast
10:35 PM 44.6 °F 37.8 °F 35.6 °F 71% 29.77 in 10.0 mi NE 15.0 mph 24.2 mph N/A   Overcast
10:54 PM 44.6 °F 38.4 °F 35.6 °F 71% 29.76 in 10.0 mi NE 12.7 mph 24.2 mph N/A   Overcast
11:14 PM 44.6 °F 37.2 °F 35.6 °F 71% 29.75 in 10.0 mi NE 17.3 mph 23.0 mph N/A   Overcast
11:54 PM 44.6 °F 37.8 °F 35.6 °F 71% 29.72 in 10.0 mi NE 15.0 mph 23.0 mph N/A   Overcast